Home   Weather   Sonthofen   Past weeks

Flag for Germany Past Weather in Sonthofen, Bavaria, Germany — Yesterday and Last 2 Weeks

Now
30 °F

Chilly.


Feels Like: 30 °F
Forecast: 22 / 45 °F
Wind: 1 mph from Southwest

Location: Bregenz

Current Time: Dec 8, 2016 at 1:15:01 am

Latest Report: Dec 8, 2016 at 12:00 am


Visibility: N/A

Pressure: 30.68 "Hg (27.93 "Hg at 748m altitude)

Humidity: 93%

Dew Point: 29 °F

Location of SonthofenLocation

Past Weather in Sonthofen — Graph

°F

Sonthofen Temperature Yesterday

Maximum temperature yesterday: 35 °F (at 2:00 pm)
Minimum temperature yesterday: 28 °F (at 4:00 am)
Average temperature yesterday: 31 °F

High & Low Weather Summary for the Past Weeks

 TemperatureHumidityPressure
High63 °F (Nov 23, 11:00 pm)100% (Dec 6, 10:00 am)30.69 "Hg (Dec 6, 10:00 am)
Low24 °F (Nov 29, 7:00 am)39% (Nov 24, 3:00 am)29.93 "Hg (Nov 24, 3:00 am)
Average37 °F83%30.27 "Hg
* Reported Nov 22 11:00 pm — Dec 7 11:00 pm, Sonthofen, Weather by CustomWeather, © 2016

Note: Actual official high and low records may vary slightly from our data, if they occured in-between our weather recording intervals... More about our weather records

Advertising

Sonthofen Weather History for the Previous 24 Hours

Scroll right to see more
 ConditionsComfort  
Time TempWeatherWind HumidityBarometerVisibility
11:00 pm
Wed, Dec 7
31 °FChilly.1 mph94%30.69 "HgN/A
10:00 pm31 °FChilly.2 mph93%30.68 "HgN/A
9:00 pm32 °FChilly.1 mph94%30.68 "HgN/A
8:00 pm33 °FChilly.2 mph92%30.66 "HgN/A
7:00 pm32 °FChilly.1 mph93%30.65 "HgN/A
6:00 pm32 °FChilly.1 mph92%30.63 "HgN/A
5:00 pm33 °FChilly.2 mph90%30.61 "HgN/A
4:00 pm34 °FChilly.1 mph87%30.59 "HgN/A
3:00 pm34 °FChilly.1 mph86%30.59 "HgN/A
2:00 pm35 °FChilly.2 mph84%30.58 "HgN/A
1:00 pm34 °FScattered clouds.2 mph86%30.58 "Hg4 mi
12:00 pm32 °FChilly.2 mph92%30.60 "HgN/A
11:00 am30 °FChilly.1 mph98%30.62 "HgN/A
10:00 am29 °FFog.1 mph100%30.63 "Hg1 mi
9:00 am28 °FChilly.No wind98%30.62 "HgN/A
8:00 am29 °FChilly.1 mph98%30.61 "HgN/A
7:00 am28 °FFog.1 mph100%30.61 "Hg0 mi
6:00 am29 °FChilly.1 mph98%30.60 "HgN/A
4:00 am28 °FChilly.No wind99%30.60 "HgN/A
3:00 am29 °FChilly.1 mph99%30.59 "HgN/A
1:00 am30 °FChilly.No wind99%30.57 "HgN/A
Weather by CustomWeather, © 2016

See weather overviewHow to use our weather pages